| time (UTC) | temp F | wind direction | speed knots | gust knots | rain 1hr in | rain 24hr in | rain mn in | humidity % | barometer mb |
| 20260509120046 | 74 | 292 | 1.7 | 7.8 | 0.00 | 0.00 | 0.00 | 47 | 1014.5 |
| 20260509114545 | 73 | 283 | 1.7 | 7.8 | 0.00 | 0.00 | 0.00 | 54 | 1014.7 |
| 20260509113046 | 74 | 299 | 0.9 | 5.2 | 0.00 | 0.00 | 0.00 | 55 | 1014.8 |
| 20260509111557 | 73 | 281 | 0.9 | 8.7 | 0.00 | 0.00 | 0.00 | 56 | 1014.8 |
| 20260509110041 | 73 | 327 | 1.7 | 7.8 | 0.00 | 0.00 | 0.00 | 52 | 1014.9 |
| 20260509104545 | 73 | 259 | 2.6 | 7.8 | 0.00 | 0.00 | 0.00 | 52 | 1014.9 |
| 20260509103048 | 73 | 291 | 2.6 | 6.1 | 0.00 | 0.00 | 0.00 | 57 | 1014.9 |
| 20260509101608 | 73 | 236 | 1.7 | 7.8 | 0.00 | 0.00 | 0.00 | 57 | 1015.0 |
| 20260509100042 | 73 | 283 | 1.7 | 7.8 | 0.00 | 0.00 | 0.00 | 53 | 1015.0 |
| 20260509094539 | 73 | 263 | 0.9 | 6.1 | 0.00 | 0.00 | 0.00 | 54 | 1015.1 |
| 20260509093034 | 73 | 255 | 0.9 | 7.0 | 0.00 | 0.00 | 0.00 | 56 | 1015.2 |
| 20260509091540 | 73 | 315 | 1.7 | 5.2 | 0.00 | 0.00 | 0.00 | 54 | 1015.3 |
| 20260509090038 | 72 | 236 | 1.7 | 5.2 | 0.00 | 0.00 | 0.00 | 53 | 1015.5 |
| 20260509084536 | 73 | 311 | 1.7 | 4.3 | 0.00 | 0.00 | 0.00 | 47 | 1015.5 |
| 20260509083028 | 73 | 330 | 0.9 | 4.3 | 0.00 | 0.00 | 0.00 | 46 | 1015.6 |
| 20260509081529 | 72 | 299 | 0.0 | 3.5 | 0.00 | 0.00 | 0.00 | 46 | 1015.6 |
| 20260509080028 | 72 | 267 | 0.9 | 2.6 | 0.00 | 0.00 | 0.00 | 46 | 1015.6 |
| 20260509074536 | 71 | 300 | 0.0 | 2.6 | 0.00 | 0.00 | 0.00 | 48 | 1015.7 |
| 20260509073023 | 71 | 277 | 0.0 | 3.5 | 0.00 | 0.00 | 0.00 | 48 | 1015.6 |
| 20260509071525 | 71 | 295 | 0.0 | 2.6 | 0.00 | 0.00 | 0.00 | 46 | 1015.5 |
| 20260509070023 | 71 | 288 | 0.9 | 3.5 | 0.00 | 0.00 | 0.00 | 45 | 1015.5 |
| 20260509064522 | 71 | 294 | 0.0 | 1.7 | 0.00 | 0.00 | 0.00 | 45 | 1015.4 |
| 20260509063027 | 71 | 304 | 0.0 | 1.7 | 0.00 | 0.00 | 0.00 | 48 | 1015.4 |
| 20260509061521 | 70 | 320 | 0.0 | 1.7 | 0.00 | 0.00 | 0.00 | 48 | 1015.3 |
| 20260509060020 | 70 | 3 | 0.0 | 0.9 | 0.00 | 0.00 | 0.00 | 47 | 1015.2 |
| 20260509054519 | 70 | 3 | 0.0 | 0.0 | 0.00 | 0.00 | 0.00 | 46 | 1015.2 |
| 20260509053021 | 71 | 83 | 0.0 | 0.0 | 0.00 | 0.00 | 0.00 | 44 | 1015.1 |
| 20260509051514 | 70 | 83 | 0.0 | 0.9 | 0.00 | 0.00 | 0.00 | 49 | 1015.1 |
| 20260509050012 | 67 | 83 | 0.0 | 0.0 | 0.00 | 0.00 | 0.00 | 52 | 1015.1 |
| 20260509044507 | 66 | 83 | 0.0 | 0.0 | 0.00 | 0.00 | 0.00 | 53 | 1015.1 |
| 20260509043004 | 64 | 83 | 0.0 | 0.0 | 0.00 | 0.00 | 0.00 | 58 | 1015.2 |
| 20260509041503 | 64 | 83 | 0.0 | 1.7 | 0.00 | 0.00 | 0.00 | 58 | 1015.3 |
| 20260509040001 | 62 | 78 | 0.0 | 0.0 | 0.00 | 0.00 | 0.00 | 57 | 1015.2 |
| 20260509034501 | 62 | 78 | 0.0 | 0.9 | 0.00 | 0.00 | 0.00 | 55 | 1015.0 |
| 20260509033159 | 62 | 78 | 0.0 | 1.7 | 0.00 | 0.00 | 0.00 | 55 | 1014.9 |
| 20260509031557 | 62 | 59 | 0.0 | 0.9 | 0.00 | 0.00 | 0.00 | 52 | 1014.9 |
| 20260509030056 | 62 | 57 | 0.0 | 0.0 | 0.00 | 0.00 | 0.00 | 51 | 1014.8 |
| 20260509024559 | 64 | 57 | 0.0 | 0.0 | 0.00 | 0.00 | 0.00 | 50 | 1014.8 |
| 20260509023108 | 64 | 57 | 0.0 | 0.9 | 0.00 | 0.00 | 0.00 | 49 | 1014.7 |
| 20260509021555 | 65 | 57 | 0.0 | 0.0 | 0.00 | 0.00 | 0.00 | 46 | 1014.5 |
| 20260509020058 | 64 | 57 | 0.0 | 0.0 | 0.00 | 0.00 | 0.00 | 47 | 1014.6 |
| 20260509014552 | 64 | 58 | 0.0 | 0.0 | 0.00 | 0.00 | 0.00 | 49 | 1014.4 |
| 20260509013055 | 64 | 58 | 0.0 | 0.9 | 0.00 | 0.00 | 0.00 | 49 | 1014.4 |
| 20260509011555 | 64 | 49 | 0.0 | 1.7 | 0.00 | 0.00 | 0.00 | 49 | 1014.5 |
| 20260509010052 | 64 | 75 | 0.0 | 0.9 | 0.00 | 0.00 | 0.00 | 49 | 1014.5 |
| 20260509004546 | 64 | 75 | 0.0 | 0.0 | 0.00 | 0.00 | 0.00 | 49 | 1014.7 |
| 20260509003045 | 64 | 49 | 0.0 | 0.0 | 0.00 | 0.00 | 0.00 | 50 | 1014.8 |
| 20260509001544 | 64 | 48 | 0.0 | 0.0 | 0.00 | 0.00 | 0.00 | 51 | 1014.7 |
| 20260509000043 | 64 | 48 | 0.0 | 0.0 | 0.00 | 0.00 | 0.00 | 51 | 1014.7 |
| 20260508234541 | 63 | 65 | 0.0 | 0.9 | 0.00 | 0.00 | 0.00 | 54 | 1014.9 |
| 20260508233039 | 62 | 64 | 0.0 | 1.7 | 0.00 | 0.00 | 0.00 | 57 | 1015.0 |
| 20260508231538 | 63 | 36 | 0.0 | 0.9 | 0.00 | 0.00 | 0.00 | 56 | 1014.9 |
| 20260508230042 | 63 | 36 | 0.0 | 0.0 | 0.00 | 0.00 | 0.00 | 56 | 1015.1 |
| 20260508224535 | 63 | 36 | 0.0 | 0.9 | 0.00 | 0.00 | 0.00 | 57 | 1015.2 |
| 20260508223032 | 63 | 36 | 0.0 | 0.9 | 0.00 | 0.00 | 0.00 | 58 | 1015.4 |
| 20260508221531 | 62 | 36 | 0.0 | 0.0 | 0.00 | 0.00 | 0.00 | 58 | 1015.5 |
| 20260508220030 | 63 | 35 | 0.0 | 0.0 | 0.00 | 0.00 | 0.00 | 58 | 1015.5 |
| 20260508214532 | 62 | 35 | 0.0 | 0.9 | 0.00 | 0.00 | 0.00 | 59 | 1015.6 |
| 20260508213126 | 62 | 30 | 0.0 | 0.0 | 0.00 | 0.00 | 0.00 | 61 | 1015.7 |
| 20260508211535 | 62 | 30 | 0.0 | 0.9 | 0.00 | 0.00 | 0.00 | 61 | 1015.6 |
| 20260508210026 | 63 | 30 | 0.0 | 0.0 | 0.00 | 0.00 | 0.00 | 61 | 1015.8 |
| 20260508204522 | 63 | 30 | 0.0 | 0.0 | 0.00 | 0.00 | 0.00 | 60 | 1016.0 |
| 20260508203022 | 64 | 30 | 0.0 | 0.0 | 0.00 | 0.00 | 0.00 | 58 | 1016.1 |
| 20260508201522 | 64 | 30 | 0.0 | 1.7 | 0.00 | 0.00 | 0.00 | 57 | 1016.1 |
| 20260508200023 | 64 | 72 | 0.0 | 2.6 | 0.00 | 0.00 | 0.00 | 55 | 1016.2 |
| 20260508194529 | 65 | 45 | 0.0 | 0.9 | 0.00 | 0.00 | 0.00 | 53 | 1016.3 |
| 20260508193019 | 64 | 49 | 0.0 | 3.5 | 0.00 | 0.00 | 0.00 | 49 | 1016.5 |
| 20260508191526 | 64 | 10 | 0.0 | 4.3 | 0.00 | 0.00 | 0.00 | 50 | 1016.5 |
| 20260508190018 | 63 | 41 | 0.0 | 0.9 | 0.00 | 0.00 | 0.00 | 53 | 1016.7 |
| 20260508184518 | 63 | 27 | 0.0 | 2.6 | 0.00 | 0.00 | 0.00 | 51 | 1016.8 |
| 20260508183023 | 63 | 38 | 0.0 | 3.5 | 0.00 | 0.00 | 0.00 | 49 | 1016.8 |
| 20260508181516 | 64 | 13 | 0.9 | 4.3 | 0.00 | 0.00 | 0.00 | 48 | 1016.8 |
| 20260508180016 | 63 | 331 | 0.0 | 2.6 | 0.00 | 0.00 | 0.00 | 47 | 1016.8 |
| 20260508174515 | 63 | 334 | 0.9 | 4.3 | 0.00 | 0.00 | 0.00 | 47 | 1016.6 |
| 20260508173016 | 64 | 40 | 0.9 | 7.0 | 0.00 | 0.00 | 0.00 | 46 | 1016.4 |
| 20260508171515 | 64 | 319 | 0.9 | 7.8 | 0.00 | 0.00 | 0.00 | 46 | 1016.3 |
| 20260508170014 | 64 | 334 | 1.7 | 6.1 | 0.00 | 0.00 | 0.00 | 47 | 1016.1 |
| 20260508164514 | 64 | 59 | 0.9 | 5.2 | 0.00 | 0.00 | 0.00 | 49 | 1015.9 |
| 20260508163016 | 65 | 1 | 0.9 | 4.3 | 0.00 | 0.00 | 0.00 | 48 | 1015.8 |
| 20260508161512 | 65 | 319 | 0.9 | 5.2 | 0.00 | 0.00 | 0.00 | 47 | 1015.7 |
| 20260508160011 | 66 | 318 | 0.0 | 5.2 | 0.00 | 0.00 | 0.00 | 47 | 1015.6 |
| 20260508154532 | 68 | 321 | 0.9 | 6.1 | 0.00 | 0.00 | 0.00 | 45 | 1015.5 |
| 20260508153012 | 69 | 338 | 0.9 | 5.2 | 0.00 | 0.00 | 0.00 | 47 | 1015.3 |
| 20260508151512 | 70 | 340 | 0.9 | 7.0 | 0.00 | 0.00 | 0.00 | 47 | 1015.3 |
| 20260508150007 | 72 | 360 | 1.7 | 7.0 | 0.00 | 0.00 | 0.00 | 43 | 1015.4 |
| 20260508144505 | 72 | 328 | 0.0 | 6.1 | 0.00 | 0.00 | 0.00 | 44 | 1015.6 |
| 20260508143003 | 72 | 38 | 0.0 | 8.7 | 0.00 | 0.00 | 0.00 | 44 | 1015.4 |
| 20260508141504 | 73 | 298 | 0.0 | 5.2 | 0.00 | 0.00 | 0.00 | 44 | 1015.4 |
| 20260508140003 | 73 | 320 | 0.9 | 5.2 | 0.00 | 0.00 | 0.00 | 43 | 1015.4 |
| 20260508134501 | 73 | 293 | 0.0 | 6.1 | 0.00 | 0.00 | 0.00 | 42 | 1015.4 |
| 20260508133102 | 74 | 294 | 0.9 | 6.1 | 0.00 | 0.00 | 0.00 | 41 | 1015.4 |
| 20260508131608 | 73 | 307 | 1.7 | 6.1 | 0.00 | 0.00 | 0.00 | 39 | 1015.5 |
| 20260508130056 | 73 | 303 | 0.9 | 5.2 | 0.00 | 0.00 | 0.00 | 40 | 1015.6 |
| 20260508124555 | 72 | 281 | 2.6 | 7.8 | 0.00 | 0.00 | 0.00 | 43 | 1015.8 |
| 20260508123055 | 72 | 360 | 1.7 | 7.8 | 0.00 | 0.00 | 0.00 | 50 | 1015.9 |
| 20260508121552 | 72 | 277 | 2.6 | 8.7 | 0.00 | 0.00 | 0.00 | 49 | 1016.0 |